936  
ASUS44 KLCH 291611  
RWRLCH  
REGIONAL WEATHER ROUNDUP  
NATIONAL WEATHER SERVICE LAKE CHARLES LA  
1100 AM CDT WED MAR 29 2017  
 
NOTE: "FAIR" INDICATES FEW OR NO CLOUDS BELOW 12,000 FEET WITH NO  
SIGNIFICANT WEATHER AND/OR S TO VISIBILITY
.  
 
ACROSS SOUTHEAST TEXAS  
 
CITY SKY/WX TMP DP RH WIND PRES REMARKS
 
BEAUMONT MOSUNNY 81 68 64 SE16 29.86S  
BEAUMONT CITY FAIR N/A N/A N/A SE13G18 29.87S  
ORANGE PTSUNNY 79 69 71 SE9 29.90S  
JASPER CLOUDY 77 67 71 S7 29.91R  

 
 
ACROSS CENTRAL LOUISIANA  
 
CITY SKY/WX TMP DP RH WIND PRES REMARKS
 
LEESVILLE PTSUNNY 77 63 61 SE18 29.89F  
FULLERTON PTSUNNY 78 65 63 VRB7 29.89F  
ALEXANDRIA INT LGT RAIN 75 65 70 SE13G24 29.90F  
ESLER FIELD MOSUNNY 78 66 66 SE14G21 29.93F  
DERIDDER CLOUDY 76 64 66 SE10 29.92R HAZE  
OAKDALE CLOUDY 77 67 70 S8 29.92F  
OPELOUSAS PTSUNNY 76 65 68 MISG 29.95F  

 
 
ACROSS SOUTHWEST AND SOUTH CENTRAL LOUISIANA  
 
CITY SKY/WX TMP DP RH WIND PRES REMARKS
 
SULPHUR PTSUNNY 80 68 66 SE12 29.91R  
LAKE CHARLES PTSUNNY 80 66 62 SE18 29.90S  
CHENNAULT INT PTSUNNY 79 68 69 SE12 29.91F  
CAMERON PHI SUNNY 77 70 78 SE13G20 29.89S  
DEQUINCY CLOUDY 77 66 69 SE12 29.90R  
JENNINGS PTSUNNY 77 67 70 S12G17 29.92F  
LAFAYETTE PTSUNNY 80 66 62 S10 29.96R  
NEW IBERIA PTSUNNY 79 65 62 S14 29.97R  
ABBEVILLE CLOUDY 77 70 78 SE9G17 29.96R  
PATTERSON PTSUNNY 79 68 69 SE10 29.97S  
SALT POINT N/A 76 68 76 SE12 29.94S  

 
 
SELECTED SITES ACROSS THE REGION  
 
CITY SKY/WX TMP DP RH WIND PRES REMARKS
 
HOUSTON BUSH TSTM 71 68 90 VRB7 29.86R VSB 1/2  
HOUSTON HOBBY TSTM 74 68 81 SE15G24 29.80S  
GALVESTON CLOUDY 78 71 79 E16 29.84R HAZE  
COLLEGE STAT PTSUNNY 70 66 87 SE8 29.79S  
CONROE TSTM 68 64 87 E18G39 29.76F FOG  
HUNTSVILLE LGT RAIN 70 65 84 VRB3 29.80R  
LUFKIN LGT RAIN 65 63 93 S9 29.90S  
SHREVEPORT CLOUDY 70 65 84 SE17 29.83F  
MONROE PTSUNNY 77 65 66 S13G21 29.93R  
NATCHEZ MS NOT AVBL  
BATON ROUGE PTSUNNY 78 65 63 S10 29.99R  
N.O. INTL ARPT PTSUNNY 78 66 66 S12 30.01R  
SLIDELL PTSUNNY 79 65 62 S13 30.02R  

 
 
MARINE REPORTS  
 
STATION/POSITION TIME SKY/WX TEMP WIND PRES VSBY
 
AIR SEA DIR/SP/G  
(UTC) (F) (DEG/KT/KT) (MB) (MI)  
BUOY 30 S HIGH I 1450 73 72 100/ 12/ 14 1010.4  
WVE H/P(F/S)= 6/ 8  
 
SEA RIM ST PARK 1600 76 120/ 13/ 16 1012.0R  
PORT ARTHUR 1548 74 130/ 7/ 13 1011.8R  
SABINE PASS N 1542 74 77 110/ 13/ 15 1013.2R  
TEXAS POINT NOT AVBL  
CALCASIEU PASS 1548 75 75 140/ 12/ 16 N/A  
LK CHARLES BEACH 1548 78 71 1013.1F  
MARSH ISLAND 1500 74 N/A  
FRESH WATER LOCK 1548 75 76 130/ 10/ 12 1013.7F  
AMERADA PASS 1548 76 65 140/ 7/ 15 1014.3F  

 
 
 
CLICK HERE TO GO TO PREVIOUS BULLETINS.

The Nexlab LA Page
The Nexlab TX Page Main Text Page